Volver al catálogo

QIANFAN-182

ActivoComunicacionesPO
NORAD 69399·PAYLOAD·🇨🇳 China

Lanzado Jun 4, 2026 desde Taiyuan Satellite Launch Center

Loading…

Próximos Pases (próximas 24 horas)

TLE

ActualizadoSource: Space-Track

Época: Sep 14, 2026, 20:46 UTC

1 69399U 26124T   26257.86560437  .00000134  00000-0  18838-3 0  9991
2 69399  89.0049 352.5866 0001837 102.7232 257.4125 13.51027564 14138

Sigue QIANFAN-182 en tiempo real con AllMySat

Download on the App Store